• In Österreich
  • Länderverzeichnis
  • Für 7 Tage
  • Wassertemperatur
  • Satellitenkarten
  • Wetterkarte
  • News
  • Widgets
  • user-avatar
    Anmelden

    Stündliche Wetter Batina

    Heute, 16 November, Freitag

    Zeit Temperatur Niederschläge Wind Luftdruck Luftfeuchtigkeit
    00:00 +10°C° 0 mm 2 m/S 670 mmHg 78%
    01:00 +11°C° 0 mm 1 m/S 669 mmHg 79%
    02:00 +10°C° 0 mm 1 m/S 669 mmHg 81%
    03:00 +10°C° 0 mm 1 m/S 669 mmHg 82%
    04:00 +10°C° 0 mm 1 m/S 669 mmHg 83%
    05:00 +9°C° 0 mm 1 m/S 669 mmHg 83%
    06:00 +9°C° 0 mm 1 m/S 669 mmHg 84%
    07:00 +10°C° 0 mm 2 m/S 669 mmHg 77%
    08:00 +12°C° 0 mm 2 m/S 670 mmHg 69%
    09:00 +14°C° 0 mm 2 m/S 671 mmHg 62%
    10:00 +15°C° 0 mm 2 m/S 671 mmHg 57%
    11:00 +16°C° 0 mm 3 m/S 671 mmHg 52%
    12:00 +17°C° 0 mm 3 m/S 671 mmHg 47%
    13:00 +17°C° 0 mm 3 m/S 670 mmHg 46%
    14:00 +17°C° 0 mm 3 m/S 670 mmHg 46%
    15:00 +17°C° 0 mm 3 m/S 670 mmHg 45%
    16:00 +16°C° 0 mm 3 m/S 670 mmHg 51%
    17:00 +15°C° 0 mm 2 m/S 669 mmHg 57%
    18:00 +14°C° 0 mm 2 m/S 669 mmHg 62%
    19:00 +13°C° 0 mm 2 m/S 669 mmHg 67%
    20:00 +12°C° 0 mm 2 m/S 669 mmHg 71%
    21:00 +12°C° 0 mm 1 m/S 669 mmHg 75%
    22:00 +11°C° 0 mm 1 m/S 669 mmHg 77%
    23:00 +11°C° 0 mm 1 m/S 669 mmHg 80%

    Morgen, 17 November, Samstag

    Zeit Temperatur Niederschläge Wind Luftdruck Luftfeuchtigkeit
    00:00 +11°C° 0 mm 1 m/S 669 mmHg 82%
    01:00 +10°C° 0 mm 1 m/S 668 mmHg 83%
    02:00 +10°C° 0 mm 1 m/S 668 mmHg 83%
    03:00 +9°C° 0 mm 0 m/S 667 mmHg 84%
    04:00 +9°C° 0 mm 0 m/S 667 mmHg 84%
    05:00 +9°C° 0 mm 0 m/S 667 mmHg 84%
    06:00 +9°C° 0 mm 0 m/S 667 mmHg 85%
    07:00 +11°C° 0.1 mm 1 m/S 668 mmHg 79%
    08:00 +12°C° 0.1 mm 1 m/S 668 mmHg 74%
    09:00 +13°C° 0.1 mm 1 m/S 668 mmHg 68%
    10:00 +14°C° 0.2 mm 1 m/S 668 mmHg 64%
    11:00 +14°C° 0.2 mm 2 m/S 668 mmHg 60%
    12:00 +15°C° 0.2 mm 2 m/S 667 mmHg 56%
    13:00 +15°C° 0.5 mm 2 m/S 667 mmHg 57%
    14:00 +14°C° 0.5 mm 3 m/S 667 mmHg 57%
    15:00 +14°C° 0.5 mm 3 m/S 667 mmHg 58%
    16:00 +14°C° 0.4 mm 2 m/S 667 mmHg 64%
    17:00 +13°C° 0.4 mm 2 m/S 667 mmHg 71%
    18:00 +12°C° 0.4 mm 1 m/S 666 mmHg 78%
    19:00 +11°C° 0.1 mm 1 m/S 666 mmHg 80%
    20:00 +11°C° 0.1 mm 1 m/S 667 mmHg 82%
    21:00 +11°C° 0.1 mm 1 m/S 667 mmHg 85%
    22:00 +10°C° 0 mm 1 m/S 666 mmHg 86%
    23:00 +10°C° 0 mm 1 m/S 666 mmHg 86%

    übermorgen, 18 November, Sonntag

    Zeit Temperatur Niederschläge Wind Luftdruck Luftfeuchtigkeit
    00:00 +10°C° 0 mm 1 m/S 665 mmHg 87%
    01:00 +9°C° 0 mm 1 m/S 665 mmHg 87%
    02:00 +9°C° 0 mm 1 m/S 665 mmHg 87%
    03:00 +9°C° 0 mm 1 m/S 665 mmHg 86%
    04:00 +9°C° 0 mm 1 m/S 665 mmHg 87%
    05:00 +9°C° 0 mm 1 m/S 665 mmHg 87%
    06:00 +9°C° 0 mm 1 m/S 665 mmHg 87%
    07:00 +9°C° 0 mm 2 m/S 666 mmHg 81%
    08:00 +10°C° 0 mm 2 m/S 667 mmHg 74%
    09:00 +12°C° 0 mm 3 m/S 667 mmHg 68%
    10:00 +13°C° 0 mm 4 m/S 667 mmHg 64%
    11:00 +13°C° 0 mm 4 m/S 667 mmHg 59%
    12:00 +14°C° 0 mm 5 m/S 667 mmHg 55%
    13:00 +14°C° 0 mm 5 m/S 667 mmHg 55%
    14:00 +14°C° 0 mm 4 m/S 666 mmHg 55%
    15:00 +14°C° 0 mm 4 m/S 666 mmHg 55%
    16:00 +13°C° 0 mm 4 m/S 666 mmHg 61%
    17:00 +12°C° 0 mm 3 m/S 666 mmHg 66%
    18:00 +12°C° 0 mm 2 m/S 665 mmHg 71%
    19:00 +11°C° 0 mm 3 m/S 665 mmHg 73%
    20:00 +11°C° 0 mm 3 m/S 666 mmHg 74%
    21:00 +10°C° 0 mm 3 m/S 666 mmHg 76%
    22:00 +10°C° 0 mm 3 m/S 666 mmHg 76%
    23:00 +10°C° 0 mm 3 m/S 665 mmHg 76%

    19 November, Montag

    Zeit Temperatur Niederschläge Wind Luftdruck Luftfeuchtigkeit
    00:00 +10°C° 0 mm 3 m/S 665 mmHg 76%
    01:00 +10°C° 0 mm 3 m/S 665 mmHg 76%
    02:00 +10°C° 0 mm 2 m/S 664 mmHg 76%
    03:00 +9°C° 0 mm 2 m/S 664 mmHg 76%
    04:00 +9°C° 0 mm 2 m/S 664 mmHg 76%
    05:00 +9°C° 0 mm 2 m/S 664 mmHg 77%
    06:00 +8°C° 0 mm 2 m/S 663 mmHg 77%
    07:00 +10°C° 0 mm 3 m/S 664 mmHg 70%
    08:00 +11°C° 0 mm 3 m/S 664 mmHg 63%
    09:00 +13°C° 0 mm 4 m/S 664 mmHg 56%
    10:00 +13°C° 0 mm 5 m/S 664 mmHg 54%
    11:00 +13°C° 0 mm 5 m/S 664 mmHg 52%
    12:00 +14°C° 0 mm 6 m/S 663 mmHg 50%
    13:00 +13°C° 0.1 mm 6 m/S 663 mmHg 51%
    14:00 +13°C° 0.1 mm 6 m/S 662 mmHg 52%
    15:00 +13°C° 0.1 mm 6 m/S 662 mmHg 52%
    16:00 +11°C° 0.2 mm 6 m/S 661 mmHg 58%
    17:00 +10°C° 0.2 mm 5 m/S 661 mmHg 64%
    18:00 +9°C° 0.2 mm 5 m/S 661 mmHg 69%
    19:00 +9°C° 0.4 mm 5 m/S 660 mmHg 71%
    20:00 +9°C° 0.4 mm 5 m/S 660 mmHg 73%
    21:00 +10°C° 0.4 mm 4 m/S 660 mmHg 74%
    22:00 +8°C° 0.1 mm 5 m/S 660 mmHg 76%
    23:00 +8°C° 0.1 mm 5 m/S 660 mmHg 79%

    20 November, Dienstag

    Zeit Temperatur Niederschläge Wind Luftdruck Luftfeuchtigkeit
    00:00 +8°C° 0.1 mm 5 m/S 660 mmHg 81%
    01:00 +7°C° 0 mm 4 m/S 660 mmHg 81%
    02:00 +7°C° 0 mm 4 m/S 660 mmHg 82%
    03:00 +7°C° 0 mm 3 m/S 660 mmHg 82%
    04:00 +7°C° 0 mm 3 m/S 660 mmHg 80%
    05:00 +6°C° 0 mm 4 m/S 660 mmHg 78%
    06:00 +6°C° 0 mm 4 m/S 660 mmHg 76%
    07:00 +7°C° 0 mm 4 m/S 661 mmHg 73%
    08:00 +8°C° 0 mm 5 m/S 661 mmHg 70%
    09:00 +9°C° 0 mm 6 m/S 662 mmHg 67%
    10:00 +9°C° 0 mm 6 m/S 662 mmHg 66%
    11:00 +10°C° 0 mm 6 m/S 662 mmHg 65%
    12:00 +10°C° 0 mm 6 m/S 662 mmHg 64%
    13:00 +10°C° 0 mm 6 m/S 662 mmHg 64%
    14:00 +10°C° 0 mm 6 m/S 662 mmHg 63%
    15:00 +11°C° 0 mm 6 m/S 662 mmHg 63%
    16:00 +10°C° 0.1 mm 5 m/S 663 mmHg 67%
    17:00 +11°C° 0.1 mm 4 m/S 663 mmHg 71%
    18:00 +10°C° 0.1 mm 4 m/S 664 mmHg 75%
    19:00 +10°C° 0.2 mm 3 m/S 664 mmHg 78%
    20:00 +9°C° 0.2 mm 3 m/S 665 mmHg 80%
    21:00 +9°C° 0.2 mm 3 m/S 665 mmHg 83%
    22:00 +9°C° 0.3 mm 2 m/S 665 mmHg 83%
    23:00 +9°C° 0.3 mm 2 m/S 665 mmHg 83%

    21 November, Mittwoch

    Zeit Temperatur Niederschläge Wind Luftdruck Luftfeuchtigkeit
    00:00 +9°C° 0.3 mm 2 m/S 666 mmHg 84%
    01:00 +8°C° 0.2 mm 2 m/S 666 mmHg 84%
    02:00 +8°C° 0.2 mm 2 m/S 666 mmHg 85%
    03:00 +7°C° 0.2 mm 2 m/S 666 mmHg 86%
    04:00 +8°C° 0 mm 1 m/S 666 mmHg 86%
    05:00 +7°C° 0 mm 1 m/S 666 mmHg 86%
    06:00 +7°C° 0 mm 1 m/S 666 mmHg 86%
    07:00 +7°C° 0 mm 2 m/S 667 mmHg 73%
    08:00 +9°C° 0 mm 2 m/S 668 mmHg 61%
    09:00 +10°C° 0 mm 3 m/S 669 mmHg 49%
    10:00 +11°C° 0 mm 3 m/S 669 mmHg 47%
    11:00 +12°C° 0 mm 4 m/S 669 mmHg 46%
    12:00 +13°C° 0 mm 4 m/S 669 mmHg 44%
    13:00 +13°C° 0 mm 4 m/S 669 mmHg 45%
    14:00 +13°C° 0 mm 4 m/S 669 mmHg 46%
    15:00 +13°C° 0 mm 4 m/S 669 mmHg 47%
    16:00 +12°C° 0 mm 3 m/S 669 mmHg 53%
    17:00 +11°C° 0 mm 3 m/S 669 mmHg 59%
    18:00 +10°C° 0 mm 2 m/S 669 mmHg 65%
    19:00 +10°C° 0 mm 2 m/S 669 mmHg 67%
    20:00 +9°C° 0 mm 2 m/S 669 mmHg 69%
    21:00 +9°C° 0 mm 2 m/S 670 mmHg 71%
    22:00 +9°C° 0 mm 2 m/S 670 mmHg 72%
    23:00 +8°C° 0 mm 2 m/S 670 mmHg 73%
    Mehr zeigen